Simultaneous Nadir Overpasses (SNOs) Predictions

Prediction of SNOs between AQUA and METOP-A Satellite Orbit:

Table of predicted SNOs for the next 14.0 days since TLE Epoch: 10/24/2020
Index Date (AQUA) Time (AQUA) Lat,Lon (AQUA) SZA (AQUA ) Date (METOP-A) Time (METOP-A) Lat,Lon (METOP-A) SZA (METOP-A ) Distance(km) Time Diff (sec)
1 10/26/2020 05:26:02 76.65, 85.18 89.35 10/26/2020 05:24:49 76.57, 84.71 89.30 15.43 73
2 10/26/2020 06:15:30 -76.74,-107.47 90.55 10/26/2020 06:15:27 -76.73,-107.38 90.56 2.70 3
3 10/26/2020 07:04:57 76.75, 60.14 89.48 10/26/2020 07:06:06 76.78, 60.14 89.50 3.49 69
4 10/29/2020 01:00:18 76.68, 151.53 90.32 10/29/2020 00:59:09 76.71, 151.57 90.36 3.20 69
5 10/29/2020 01:49:45 -76.72, -40.96 89.63 10/29/2020 01:49:50 -76.73, -41.02 89.62 2.32 5
6 10/29/2020 02:39:15 76.87, 126.15 90.55 10/29/2020 02:40:27 76.87, 126.84 90.52 17.44 72
7 10/31/2020 20:34:33 76.71,-142.16 91.27 10/31/2020 20:33:31 76.71,-142.09 91.28 1.93 62
8 10/31/2020 21:24:00 -76.75, 25.36 88.68 10/31/2020 21:24:12 -76.73, 25.33 88.70 1.99 12
9 10/31/2020 22:13:36 77.18,-168.59 91.82 10/31/2020 22:14:42 77.18,-165.58 91.71 74.27 66
10 11/03/2020 16:08:48 76.71, -75.71 92.15 11/03/2020 16:07:54 76.71, -75.74 92.16 1.03 54
11 11/03/2020 16:58:15 -76.75, 91.81 87.80 11/03/2020 16:58:35 -76.73, 91.68 87.81 3.53 20
12 11/06/2020 11:43:03 76.72, -9.29 93.01 11/06/2020 11:42:17 76.70, -9.41 93.01 3.33 46
13 11/06/2020 12:32:30 -76.75, 158.22 86.94 11/06/2020 12:32:57 -76.78, 158.19 86.92 2.85 27
